Location: Arboucave
(43.6130°N, 0.4343°W)
Time: 13:34:22
(UTC+00:00)

Cosmos 1943 Rocket - Pass Details

Date: 17 November 2025
Orbit: 812 x 841 km, 71.0° (Epoch: 06 December)

Event Time Altitude Azimuth Distance (km) Brightness Sun altitude
Rises 17:39:31 0° 201° (SSW) 3,373 5.9 -11.8°
Reaches altitude 10° 17:41:57 10° 201° (SSW) 2,440 5.1 -12.2°
Maximum altitude 17:47:33 86° 115° (ESE) 839 2.1 -13.2°
Drops below altitude 10° 17:53:09 10° 26° (NNE) 2,437 4.2 -14.2°
Enters shadow 17:54:06 - 26° (NNE) 2,796 4.5 -14.4°
